Location: Baia de Cri?
(46.1667°N, 22.7167°E)
Time: 19:24:31
(UTC+00:00)

Tiangong - Pass Details

Date: 13 March 2026
Orbit: 375 x 384 km, 41.5° (Epoch: 21 April)

Event Time Altitude Azimuth Distance (km) Brightness Sun altitude
Exits shadow 02:50:27 11° 157° (SSE) 1,336 0.6 -20.6°
Maximum altitude 02:50:43 11° 152° (SSE) 1,332 0.7 -20.6°
Drops below altitude 10° 02:51:47 10° 132° (SE) 1,409 1.1 -20.4°
Sets 02:55:03 0° 97° (E) 2,273 3.0 -19.8°
